SCP
0 0 0 0 0 0 0 0 0 0 0 -0 -0 -0 -0 0 0 0 0 0 0 0 0 0 0 0 0 0 0 0 0 0 0 0 0 0 0 0 0 0 0 0 0 0 0 0 0 0 0
0 0 0 0 0 0 0 0 0 0 -0 -0 -0 -0 0 0 0 0 0 0 0 0 0 0 0 0 0 0 0 0 0 0 0 0 0 0 0 0 0 0 0 0 0 0 0 0 0 0 0
0 0 0 0 0 -0 -0 -0 0 0 -0 0 0 0 0 0 0 0 0 0 0 0 0 0 0 0 0 0 0 0 0 0 0 0 0 0 0 0 0 0 0 0 0 0 0 0 0 0 0
0 0 0 0 0 0 0 0 0 0 -0 -0 0 0 0 0 0 0 0 0 0 0 0 0 0 0 0 0 0 0 0 0 0 0 0 0 0 0 0 0 0 0 0 0 0 0 0 0 0
0 0 0 0 0 0 0 0 0 0 0 0 0 0 0 0 0 0 0 0 0 0 0 0 0 0 0 0 0 0 0 0 0 0 0 0 0 0 0 0 0 0 0 0 0 0 0 0 0
0 0 0 0 -0 0 0 0 0 0 0 0 0 0 0 0 0 0 0 0 0 0 0 0 0 0 0 0 0 0 0 0 0 0 0 0 0 0 0 0 0 0 0 0 0 0 0 0 0
0 0 0 0 0 0 0 0 0 0 0 0 0 0 0 0 0 0 0 0 0 0 0 0 0 0 0 0 0 0 0 0 0 0 0 0 0 0 0 0 0 0 0 0 0 0 0 0 0
0 0 0 0 0 -0 -0 0 0 0 0 0 0 0 0 0 0 0 0 0 0 0 0 0 0 0 0 0 0 0 0 0 0 0 0 0 0 0 0 0 0 0 0 0 0 0 0 0 0
0 0 0 0 -0 -0 0 0 0 0 0 0 0 0 0 0 0 0 0 0 0 0 0 0 0 0 0 0 0 0 0 0 0 0 0 0 0 0 0 0 0 0 0 0 0 0 0 0 0
0 0 -0 0 0 0 0 0 0 0 0 0 0 0 0 -0 0 0 0 0 0 0 0 0 0 0 0 0 0 0 0 0 0 0 0 0 0 0 0 0 0 0 0 0 0 0 0 0 0
0 0 0 0 0 0 0 0 0 0 0 0 -0 -0 -0 0 0 0 0 0 0 0 0 0 0 0 0 0 0 0 0 0 0 0 0 0 0 0 0 0 0 0 0 0 0 0 0 0 0
0 0 0 0 0 0 0 0 0 -0 -0 0 -0 -0 0 0 0 0 0 0 0 0 0 0 0 0 0 0 0 0 0 0 0 0 0 0 0 0 0 0 0 0 0 0 0 0 0 0 0
0 0 0 0 0 0 0 -0 -0 -0 -0 -0 0 0 0 0 0 0 0 0 0 0 0 0 0 0 0 0 0 0 0 0 0 0 0 0 0 0 0 0 0 0 0 0 0 0 0 0 0
0 -0 0 0 0 -0 0 -0 0 -0 0 0 0 0 0 0 0 0 0 0 0 0 0 0 0 0 0 0 0 0 0 0 0 0 0 0 0 0 0 0 0 0 0 0 0 0 0 0 0
-0 0 0 0 -0 0 0 -0 -0 -0 0 0 0 0 0 0 0 0 0 0 0 0 0 0 0 0 0 0 0 0 0 0 0 0 0 0 0 0 0 0 0 0 0 0 0 0 0 0 0
-0 -0 -0 0 0 -0 0 -0 0 0 0 0 0 0 0 0 0 0 0 0 0 0 0 0 0 0 0 0 0 0 0 0 0 0 0 0 0 0 0 0 0 0 0 0 0 0 0 0 0
-0 0 0 0 0 0 0 -0 0 0 0 0 0 0 0 0 0 0 0 0 0 0 0 0 0 0 0 0 0 0 0 0 0 0 0 0 0 0 0 0 0 0 0 0 0 0 0 0 0
0 0 0 -0 -0 0 0 -0 -0 0 0 0 0 0 0 0 0 0 0 0 0 0 0 0 0 0 0 0 0 0 0 0 0 0 0 0 0 0 0 0 0 0 0 0 0 0 0 0 0
0 0 -0 -0 0 0 0 0 0 0 0 0 0 0 0 0 0 0 0 0 0 0 0 0 0 0 0 0 0 0 0 0 0 0 0 0 0 0 0 0 0 0 0 0 0 0 0 0 0
0 -0 -0 0 0 -0 -0 0 0 0 0 0 0 0 0 0 0 0 0 0 0 0 0 0 0 0 0 0 0 0 0 0 0 0 0 0 0 0 0 0 0 0 0 0 0 0 0 0 0
-0 -0 -0 0 0 0 -0 0 0 0 0 0 0 0 0 0 0 0 0 0 0 0 0 0 0 0 0 0 0 0 0 0 0 0 0 0 0 0 0 0 0 0 0 0 0 0 0 0 0
-0 -0 -0 -0 -0 0 0 0 0 0 0 0 0 0 0 0 0 0 0 0 0 0 0 0 0 0 0 0 0 0 0 0 0 0 0 0 0 0 0 0 0 0 0 0 0 0 0 0 0
-0 0 0 0 0 0 0 0 0 0 0 0 0 0 0 0 0 0 0 0 0 0 0 0 0 0 0 0 0 0 0 0 0 0 0 0 0 0 0 0 0 0 0 0 0 0 0 0 0
0 0 0 0 0 0 0 0 0 0 0 0 0 0 0 0 0 0 0 0 0 0 0 0 0 0 0 0 0 0 0 0 0 0 0 0 0 0 0 0 0 0 0 0 0 0 0 0 0
0 0 -0 -0 0 0 0 0 0 0 0 0 0 0 0 0 0 0 0 0 0 0 0 0 0 0 0 0 0 0 0 0 0 0 0 0 0 0 0 0 0 0 0 0 0 0 0 0 0
0 0 0 0 0 0 0 0 0 0 0 0 0 0 0 0 0 0 0 0 0 0 0 0 0 0 0 0 0 0 0 0 0 0 0 0 0 0 0 0 0 0 0 0 0 0 0 0 0
0 0 0 0 0 0 0 0 0 0 0 0 0 0 0 0 0 0 0 0 0 0 0 0 0 0 0 0 0 0 0 0 0 0 0 0 0 0 0 0 0 0 0 0 0 0 0 0 0
0 0 0 0 0 0 0 0 0 0 0 0 0 0 0 0 0 0 0 0 0 0 0 0 0 0 0 0 0 0 0 0 0 0 0 0 0 0 0 0 0 0 0 0 0 0 0 0 0
0 0 0 0 0 0 0 0 0 0 0 0 0 0 0 0 0 0 0 0 0 0 0 0 0 0 0 0 0 0 0 0 0 0 0 0 0 0 0 0 0 0 0 0 0 0 0 0 0
0 0 0 0 0 0 0 0 0 0 0 0 0 0 0 0 0 0 0 0 0 0 0 0 0 0 0 0 0 0 0 0 0 0 0 0 0 0 0 0 0 0 0 0 0 0 0 0 0
Wind_Speed_500mb
3 5 4 3 8 9 5 5 3 8 5 8 13 14 15 13 6 3 20 11 11 2 2 1 7 11 15 15 15 17 18 20 23 25 28 29 31 34 35 36 37 37 37 37 36 36 37 35 34
2 4 5 6 9 7 4 8 10 4 22 27 17 13 9 6 9 12 19 15 14 8 4 3 9 9 17 15 17 18 21 24 29 33 34 36 37 37 38 38 37 35 34 34 33 34 35 36 35
3 4 6 8 6 7 7 1 8 7 30 4 8 11 8 12 13 20 16 17 15 11 2 9 14 20 20 23 26 29 32 34 36 37 37 37 37 37 38 37 36 35 34 34 36 39 39 39 38
5 4 11 8 10 5 8 8 10 9 13 4 19 12 8 16 15 17 21 16 9 9 10 15 21 22 26 30 33 34 34 34 34 34 34 33 33 33 34 34 34 34 35 35 34 35 37 38 38
7 7 9 8 5 1 0 5 17 5 7 6 6 10 6 13 14 22 20 13 13 17 20 19 21 26 33 35 34 31 29 28 28 29 29 30 30 30 33 32 33 34 36 37 37 38 38 40 40
6 6 9 7 6 5 3 8 7 5 10 6 7 16 7 12 18 19 15 13 17 23 25 24 27 32 34 34 30 31 29 29 30 32 30 30 31 32 34 34 34 33 34 35 35 36 36 37 37
12 7 9 10 11 3 6 1 7 4 7 4 10 8 2 17 22 22 19 16 23 26 27 28 31 31 33 31 33 34 34 32 35 32 30 31 32 34 37 36 34 34 33 32 31 29 33 36 38
7 9 9 5 12 7 6 5 5 6 7 3 6 7 8 20 30 26 19 23 33 31 26 25 29 29 27 30 32 35 35 34 37 36 34 33 32 32 33 30 31 33 35 36 37 38 41 43 44
4 9 4 11 14 5 5 2 4 1 2 5 7 7 12 12 31 29 26 32 33 30 25 28 34 27 24 25 28 32 36 36 36 34 29 26 25 25 26 28 31 33 36 38 41 44 46 48 49
10 7 14 5 3 1 4 3 1 2 6 9 14 16 16 18 29 29 33 34 34 34 31 35 32 26 24 26 28 29 32 33 32 30 28 27 27 29 31 33 37 40 43 46 49 51 54 56 58
7 5 6 2 1 5 6 6 5 4 8 24 28 26 22 23 27 28 34 35 38 38 37 34 33 28 27 28 29 30 30 31 31 30 29 31 34 36 39 42 46 50 53 55 57 58 60 61 62
9 8 4 3 7 6 5 14 11 20 17 13 13 17 26 26 26 34 36 38 37 37 40 37 30 29 30 29 31 30 30 30 31 34 36 38 40 43 47 51 53 57 60 62 64 68 70 70 70
7 4 8 5 4 8 13 16 18 38 30 28 27 22 29 28 32 37 37 36 38 40 38 35 30 30 31 30 30 32 32 32 36 36 39 43 46 49 52 54 57 58 62 66 69 71 74 75 76
8 9 4 2 7 10 8 11 8 7 4 36 34 33 30 35 36 39 41 41 42 38 34 33 33 32 31 31 32 33 34 34 34 36 40 44 49 54 57 59 59 64 69 72 75 77 79 79 79
8 3 3 5 10 7 17 11 14 15 23 27 38 38 39 41 40 41 38 39 37 37 37 33 35 32 31 32 33 33 33 36 39 40 43 48 51 57 59 60 63 71 74 76 76 77 76 77 78
8 9 9 4 17 3 7 18 11 14 16 32 38 36 35 37 38 37 37 35 33 35 36 36 35 35 32 33 35 33 36 37 40 42 45 46 51 53 56 61 71 75 78 77 79 76 77 78 81
16 1 7 13 9 8 1 22 17 14 24 39 39 39 39 38 41 41 37 33 32 32 32 35 36 38 34 38 38 39 40 40 41 44 47 51 50 52 58 67 72 75 75 78 72 72 73 84 81
5 6 9 12 8 5 16 46 29 52 43 50 50 52 46 42 45 43 39 33 30 29 30 33 37 37 37 42 45 44 44 42 46 49 50 50 52 58 63 72 73 73 72 69 69 74 79 71 76
5 5 10 10 2 14 7 26 37 43 13 22 31 36 38 38 31 42 38 34 30 30 33 34 35 35 39 46 52 53 52 54 55 57 56 60 65 70 72 73 74 70 71 72 73 70 70 67 65
8 6 10 15 4 5 16 39 16 5 4 7 10 14 20 19 18 29 34 31 31 29 33 33 33 36 43 49 52 52 55 59 61 63 65 68 71 71 70 69 70 71 73 73 68 66 68 65 55
2 1 5 10 18 3 17 14 8 2 4 7 11 8 6 9 14 21 24 27 30 30 31 32 32 37 44 50 50 52 59 64 67 69 71 70 70 70 71 70 70 67 64 62 66 71 68 70 70
8 2 4 9 11 5 11 8 10 5 2 7 13 12 8 3 6 12 21 27 26 27 26 26 28 38 46 46 50 58 62 64 67 69 70 71 70 70 68 64 63 57 60 66 72 65 68 76 76
8 4 8 3 5 6 9 6 15 5 6 4 3 9 9 5 3 10 15 17 18 15 18 26 35 40 42 46 53 56 58 61 65 68 71 73 73 70 64 58 63 67 70 74 75 66 57 59 63
6 3 3 6 4 6 4 6 13 7 6 6 6 5 5 3 4 9 9 10 13 17 25 29 34 36 43 48 50 56 59 62 66 68 71 73 71 69 69 69 70 71 68 62 69 74 70 67 71
11 10 8 12 9 9 2 3 21 9 7 8 20 13 7 1 7 9 11 13 16 20 24 30 35 40 43 48 53 54 55 61 63 67 69 70 71 72 70 65 66 66 64 64 64 60 58 60 60
8 7 8 8 5 10 3 12 12 2 0 4 15 16 10 7 12 13 13 18 23 26 29 32 34 40 46 51 52 53 57 59 62 64 64 66 67 65 60 61 62 63 64 64 63 62 56 49 57
6 7 3 11 2 7 8 16 18 5 5 12 20 21 14 16 17 18 22 25 25 24 28 32 37 43 46 47 50 55 57 60 62 62 63 65 61 56 56 58 62 64 64 63 60 59 59 50 45
5 2 8 7 8 11 12 13 12 13 18 14 19 32 21 24 24 23 24 21 20 24 29 33 39 42 43 47 53 57 61 62 61 63 63 61 54 52 55 58 62 64 63 61 57 57 50 38 42
5 3 6 5 7 8 7 15 15 17 14 23 33 32 23 27 23 22 20 21 22 26 30 35 37 38 44 50 56 59 61 60 61 62 62 57 51 51 54 58 62 62 62 61 59 55 41 40 53
2 8 8 8 12 7 4 20 6 9 10 29 40 27 26 29 23 21 20 21 24 27 32 35 35 40 46 53 57 59 60 60 61 62 60 56 51 50 53 56 60 61 61 60 56 49 36 50 63
Wind_Direction_500mb
326 342 131 159 65 64 43 343 17 144 75 79 85 93 106 54 34 158 153 167 163 146 222 344 9 346 348 341 339 337 332 325 320 317 316 317 317 317 317 316 316 315 316 316 314 311 309 308 307
346 98 126 85 83 69 324 349 89 32 138 116 88 92 53 94 120 154 164 168 185 196 205 327 325 345 338 333 325 319 316 314 314 313 312 311 311 310 311 311 311 311 311 310 310 310 309 308 307
110 116 70 84 84 123 146 226 132 104 165 162 108 84 113 143 163 167 172 174 168 179 215 318 307 312 314 316 319 317 312 307 304 302 302 304 305 306 307 307 309 309 310 310 310 311 310 308 306
184 88 71 78 98 353 130 201 176 148 85 85 127 89 134 169 168 180 179 178 199 244 277 292 297 308 312 312 312 312 311 308 306 305 304 304 303 304 302 303 305 306 307 306 306 305 304 304 304
98 79 66 77 43 167 318 259 198 137 124 130 178 176 165 192 194 177 175 192 231 260 282 292 308 310 311 312 312 313 312 311 307 303 304 303 303 303 303 303 304 307 306 306 307 305 304 302 303
99 93 76 143 183 240 239 12 123 152 149 132 109 146 173 194 176 171 192 216 253 268 287 302 305 307 308 309 312 313 314 316 307 308 310 305 303 299 301 305 308 310 313 316 317 315 323 320 319
101 77 143 152 182 215 213 86 125 190 184 159 144 123 194 189 181 190 204 243 258 273 284 295 306 307 304 307 314 313 313 312 312 311 308 305 304 304 305 308 306 307 310 311 312 313 307 312 311
70 91 116 146 185 223 213 166 176 207 213 161 161 191 211 211 190 197 212 234 250 259 277 294 306 305 302 306 308 306 306 309 310 310 309 307 306 306 305 312 314 318 319 317 316 312 313 311 310
82 66 149 186 164 210 181 177 223 258 184 214 227 236 254 220 189 196 206 233 247 260 275 296 307 302 299 298 298 301 306 311 311 311 311 310 312 314 315 316 315 314 313 313 312 310 308 307 305
73 100 203 185 55 117 168 219 20 273 216 245 245 241 230 206 198 212 216 230 246 263 276 290 299 303 306 304 303 304 304 308 309 309 312 314 315 316 316 316 314 314 313 312 311 310 308 306 304
44 133 147 81 72 14 353 320 266 248 260 232 228 230 207 209 211 208 217 234 244 258 275 290 294 300 304 305 306 308 306 304 304 307 310 311 313 312 311 311 313 314 314 312 310 307 307 306 305
80 51 68 48 22 9 339 308 295 238 242 265 255 240 217 213 209 220 230 231 242 262 278 288 297 305 307 311 311 309 308 305 308 307 309 310 309 310 310 313 315 315 315 314 313 312 310 308 307
70 66 50 57 9 321 297 279 263 267 262 253 261 229 224 217 219 225 229 241 258 270 279 289 298 304 306 308 308 307 307 307 308 310 310 311 312 312 314 316 315 314 314 314 313 312 310 308 306
75 104 118 3 342 314 321 279 326 262 321 233 229 238 226 228 234 229 233 249 265 274 279 287 293 297 302 304 306 307 307 306 303 306 309 312 315 317 318 318 316 316 316 316 315 315 313 310 307
126 78 12 9 357 317 318 287 224 269 268 230 226 223 227 235 239 245 255 264 275 280 286 286 287 292 295 300 304 306 302 300 304 310 314 317 317 316 316 316 314 316 316 314 312 311 309 308 308
26 44 14 9 349 342 16 270 250 308 233 244 232 231 232 239 251 256 262 272 283 289 290 283 285 289 298 303 304 304 305 304 306 310 315 315 314 314 313 313 314 315 315 315 316 316 315 314 314
11 16 342 313 51 301 342 273 265 269 266 253 243 245 246 247 242 249 258 269 282 289 287 283 286 292 302 306 309 308 305 306 311 310 311 314 314 313 309 309 311 313 314 316 318 316 315 315 314
299 335 301 252 327 326 258 263 281 282 271 264 263 264 260 254 255 249 252 264 280 295 294 289 286 293 303 310 310 306 303 311 313 316 318 320 317 314 314 314 316 319 318 319 317 314 313 313 312
226 244 252 260 39 330 240 286 296 314 293 277 272 271 266 250 259 246 249 259 277 293 297 291 290 296 308 312 313 312 320 321 323 323 324 323 321 321 321 321 321 321 318 316 317 316 315 311 310
222 268 297 287 314 6 335 302 283 307 35 22 13 342 239 236 254 236 243 259 276 284 292 297 300 308 314 315 318 321 323 322 322 322 322 323 322 321 321 320 319 319 317 316 319 320 317 314 313
38 291 336 261 327 232 319 293 315 318 80 63 60 74 77 233 237 232 249 266 271 280 293 301 309 310 310 317 318 316 318 320 323 325 325 324 322 321 320 320 319 320 320 319 312 310 313 309 307
335 144 260 294 17 283 17 276 306 324 106 49 52 76 90 119 216 252 267 266 272 284 298 303 300 303 311 315 317 321 323 324 326 325 323 322 323 323 325 325 325 321 313 308 307 307 302 303 302
247 299 303 49 85 13 336 77 269 345 257 178 76 97 91 118 205 263 268 268 276 279 280 285 296 303 307 310 316 320 320 322 320 322 323 325 326 329 331 325 317 316 314 308 308 310 304 300 301
320 118 55 62 98 19 284 82 283 246 235 204 184 135 87 77 334 301 278 265 261 264 275 287 294 302 307 312 316 317 320 323 324 325 327 328 330 331 327 325 324 322 321 313 306 302 300 298 297
29 43 345 356 9 233 282 19 248 251 260 230 185 182 158 133 296 278 262 261 272 281 291 294 301 305 309 314 317 320 326 325 326 329 329 330 331 330 331 330 331 329 327 325 323 316 307 303 302
22 108 139 270 280 282 16 233 256 210 275 178 177 179 174 279 279 268 266 276 284 291 295 301 304 308 317 319 323 325 324 327 329 330 330 330 329 330 333 333 332 334 334 331 327 323 320 313 304
321 46 149 96 59 32 275 286 289 184 248 192 184 193 227 277 276 268 274 280 285 291 300 307 312 315 317 321 323 326 328 332 333 332 330 330 329 331 332 333 334 335 334 332 330 326 320 322 325
92 139 27 16 338 302 284 279 243 258 234 218 208 219 247 282 269 271 274 275 284 295 304 310 312 317 323 326 330 332 335 333 332 330 329 329 328 331 332 333 333 333 333 333 329 327 331 330 331
51 17 44 135 149 209 288 267 219 231 214 203 215 221 261 288 272 265 264 276 288 299 304 308 315 323 327 330 333 334 333 332 330 328 329 328 327 329 330 331 330 332 332 333 327 328 329 325 332
333 212 164 132 267 235 162 266 245 242 247 203 209 247 282 294 266 261 267 279 291 298 306 315 323 324 329 333 335 332 331 330 329 329 330 328 324 325 327 328 328 331 333 331 328 328 335 332 325
Wind_Speed_850mb
3 5 4 3 8 9 5 5 3 8 5 8 13 14 15 13 6 3 20 11 11 2 2 1 7 11 15 15 15 17 18 20 23 25 28 29 31 34 35 36 37 37 37 37 36 36 37 35 34
2 4 5 6 9 7 4 8 10 4 22 27 17 13 9 6 9 12 19 15 14 8 4 3 9 9 17 15 17 18 21 24 29 33 34 36 37 37 38 38 37 35 34 34 33 34 35 36 35
3 4 6 8 6 7 7 1 8 7 30 4 8 11 8 12 13 20 16 17 15 11 2 9 14 20 20 23 26 29 32 34 36 37 37 37 37 37 38 37 36 35 34 34 36 39 39 39 38
5 4 11 8 10 5 8 8 10 9 13 4 19 12 8 16 15 17 21 16 9 9 10 15 21 22 26 30 33 34 34 34 34 34 34 33 33 33 34 34 34 34 35 35 34 35 37 38 38
7 7 9 8 5 1 0 5 17 5 7 6 6 10 6 13 14 22 20 13 13 17 20 19 21 26 33 35 34 31 29 28 28 29 29 30 30 30 33 32 33 34 36 37 37 38 38 40 40
6 6 9 7 6 5 3 8 7 5 10 6 7 16 7 12 18 19 15 13 17 23 25 24 27 32 34 34 30 31 29 29 30 32 30 30 31 32 34 34 34 33 34 35 35 36 36 37 37
12 7 9 10 11 3 6 1 7 4 7 4 10 8 2 17 22 22 19 16 23 26 27 28 31 31 33 31 33 34 34 32 35 32 30 31 32 34 37 36 34 34 33 32 31 29 33 36 38
7 9 9 5 12 7 6 5 5 6 7 3 6 7 8 20 30 26 19 23 33 31 26 25 29 29 27 30 32 35 35 34 37 36 34 33 32 32 33 30 31 33 35 36 37 38 41 43 44
4 9 4 11 14 5 5 2 4 1 2 5 7 7 12 12 31 29 26 32 33 30 25 28 34 27 24 25 28 32 36 36 36 34 29 26 25 25 26 28 31 33 36 38 41 44 46 48 49
10 7 14 5 3 1 4 3 1 2 6 9 14 16 16 18 29 29 33 34 34 34 31 35 32 26 24 26 28 29 32 33 32 30 28 27 27 29 31 33 37 40 43 46 49 51 54 56 58
7 5 6 2 1 5 6 6 5 4 8 24 28 26 22 23 27 28 34 35 38 38 37 34 33 28 27 28 29 30 30 31 31 30 29 31 34 36 39 42 46 50 53 55 57 58 60 61 62
9 8 4 3 7 6 5 14 11 20 17 13 13 17 26 26 26 34 36 38 37 37 40 37 30 29 30 29 31 30 30 30 31 34 36 38 40 43 47 51 53 57 60 62 64 68 70 70 70
7 4 8 5 4 8 13 16 18 38 30 28 27 22 29 28 32 37 37 36 38 40 38 35 30 30 31 30 30 32 32 32 36 36 39 43 46 49 52 54 57 58 62 66 69 71 74 75 76
8 9 4 2 7 10 8 11 8 7 4 36 34 33 30 35 36 39 41 41 42 38 34 33 33 32 31 31 32 33 34 34 34 36 40 44 49 54 57 59 59 64 69 72 75 77 79 79 79
8 3 3 5 10 7 17 11 14 15 23 27 38 38 39 41 40 41 38 39 37 37 37 33 35 32 31 32 33 33 33 36 39 40 43 48 51 57 59 60 63 71 74 76 76 77 76 77 78
8 9 9 4 17 3 7 18 11 14 16 32 38 36 35 37 38 37 37 35 33 35 36 36 35 35 32 33 35 33 36 37 40 42 45 46 51 53 56 61 71 75 78 77 79 76 77 78 81
16 1 7 13 9 8 1 22 17 14 24 39 39 39 39 38 41 41 37 33 32 32 32 35 36 38 34 38 38 39 40 40 41 44 47 51 50 52 58 67 72 75 75 78 72 72 73 84 81
5 6 9 12 8 5 16 46 29 52 43 50 50 52 46 42 45 43 39 33 30 29 30 33 37 37 37 42 45 44 44 42 46 49 50 50 52 58 63 72 73 73 72 69 69 74 79 71 76
5 5 10 10 2 14 7 26 37 43 13 22 31 36 38 38 31 42 38 34 30 30 33 34 35 35 39 46 52 53 52 54 55 57 56 60 65 70 72 73 74 70 71 72 73 70 70 67 65
8 6 10 15 4 5 16 39 16 5 4 7 10 14 20 19 18 29 34 31 31 29 33 33 33 36 43 49 52 52 55 59 61 63 65 68 71 71 70 69 70 71 73 73 68 66 68 65 55
2 1 5 10 18 3 17 14 8 2 4 7 11 8 6 9 14 21 24 27 30 30 31 32 32 37 44 50 50 52 59 64 67 69 71 70 70 70 71 70 70 67 64 62 66 71 68 70 70
8 2 4 9 11 5 11 8 10 5 2 7 13 12 8 3 6 12 21 27 26 27 26 26 28 38 46 46 50 58 62 64 67 69 70 71 70 70 68 64 63 57 60 66 72 65 68 76 76
8 4 8 3 5 6 9 6 15 5 6 4 3 9 9 5 3 10 15 17 18 15 18 26 35 40 42 46 53 56 58 61 65 68 71 73 73 70 64 58 63 67 70 74 75 66 57 59 63
6 3 3 6 4 6 4 6 13 7 6 6 6 5 5 3 4 9 9 10 13 17 25 29 34 36 43 48 50 56 59 62 66 68 71 73 71 69 69 69 70 71 68 62 69 74 70 67 71
11 10 8 12 9 9 2 3 21 9 7 8 20 13 7 1 7 9 11 13 16 20 24 30 35 40 43 48 53 54 55 61 63 67 69 70 71 72 70 65 66 66 64 64 64 60 58 60 60
8 7 8 8 5 10 3 12 12 2 0 4 15 16 10 7 12 13 13 18 23 26 29 32 34 40 46 51 52 53 57 59 62 64 64 66 67 65 60 61 62 63 64 64 63 62 56 49 57
6 7 3 11 2 7 8 16 18 5 5 12 20 21 14 16 17 18 22 25 25 24 28 32 37 43 46 47 50 55 57 60 62 62 63 65 61 56 56 58 62 64 64 63 60 59 59 50 45
5 2 8 7 8 11 12 13 12 13 18 14 19 32 21 24 24 23 24 21 20 24 29 33 39 42 43 47 53 57 61 62 61 63 63 61 54 52 55 58 62 64 63 61 57 57 50 38 42
5 3 6 5 7 8 7 15 15 17 14 23 33 32 23 27 23 22 20 21 22 26 30 35 37 38 44 50 56 59 61 60 61 62 62 57 51 51 54 58 62 62 62 61 59 55 41 40 53
2 8 8 8 12 7 4 20 6 9 10 29 40 27 26 29 23 21 20 21 24 27 32 35 35 40 46 53 57 59 60 60 61 62 60 56 51 50 53 56 60 61 61 60 56 49 36 50 63
Wind_Direction_850mb
326 342 131 159 65 64 43 343 17 144 75 79 85 93 106 54 34 158 153 167 163 146 222 344 9 346 348 341 339 337 332 325 320 317 316 317 317 317 317 316 316 315 316 316 314 311 309 308 307
346 98 126 85 83 69 324 349 89 32 138 116 88 92 53 94 120 154 164 168 185 196 205 327 325 345 338 333 325 319 316 314 314 313 312 311 311 310 311 311 311 311 311 310 310 310 309 308 307
110 116 70 84 84 123 146 226 132 104 165 162 108 84 113 143 163 167 172 174 168 179 215 318 307 312 314 316 319 317 312 307 304 302 302 304 305 306 307 307 309 309 310 310 310 311 310 308 306
184 88 71 78 98 353 130 201 176 148 85 85 127 89 134 169 168 180 179 178 199 244 277 292 297 308 312 312 312 312 311 308 306 305 304 304 303 304 302 303 305 306 307 306 306 305 304 304 304
98 79 66 77 43 167 318 259 198 137 124 130 178 176 165 192 194 177 175 192 231 260 282 292 308 310 311 312 312 313 312 311 307 303 304 303 303 303 303 303 304 307 306 306 307 305 304 302 303
99 93 76 143 183 240 239 12 123 152 149 132 109 146 173 194 176 171 192 216 253 268 287 302 305 307 308 309 312 313 314 316 307 308 310 305 303 299 301 305 308 310 313 316 317 315 323 320 319
101 77 143 152 182 215 213 86 125 190 184 159 144 123 194 189 181 190 204 243 258 273 284 295 306 307 304 307 314 313 313 312 312 311 308 305 304 304 305 308 306 307 310 311 312 313 307 312 311
70 91 116 146 185 223 213 166 176 207 213 161 161 191 211 211 190 197 212 234 250 259 277 294 306 305 302 306 308 306 306 309 310 310 309 307 306 306 305 312 314 318 319 317 316 312 313 311 310
82 66 149 186 164 210 181 177 223 258 184 214 227 236 254 220 189 196 206 233 247 260 275 296 307 302 299 298 298 301 306 311 311 311 311 310 312 314 315 316 315 314 313 313 312 310 308 307 305
73 100 203 185 55 117 168 219 20 273 216 245 245 241 230 206 198 212 216 230 246 263 276 290 299 303 306 304 303 304 304 308 309 309 312 314 315 316 316 316 314 314 313 312 311 310 308 306 304
44 133 147 81 72 14 353 320 266 248 260 232 228 230 207 209 211 208 217 234 244 258 275 290 294 300 304 305 306 308 306 304 304 307 310 311 313 312 311 311 313 314 314 312 310 307 307 306 305
80 51 68 48 22 9 339 308 295 238 242 265 255 240 217 213 209 220 230 231 242 262 278 288 297 305 307 311 311 309 308 305 308 307 309 310 309 310 310 313 315 315 315 314 313 312 310 308 307
70 66 50 57 9 321 297 279 263 267 262 253 261 229 224 217 219 225 229 241 258 270 279 289 298 304 306 308 308 307 307 307 308 310 310 311 312 312 314 316 315 314 314 314 313 312 310 308 306
75 104 118 3 342 314 321 279 326 262 321 233 229 238 226 228 234 229 233 249 265 274 279 287 293 297 302 304 306 307 307 306 303 306 309 312 315 317 318 318 316 316 316 316 315 315 313 310 307
126 78 12 9 357 317 318 287 224 269 268 230 226 223 227 235 239 245 255 264 275 280 286 286 287 292 295 300 304 306 302 300 304 310 314 317 317 316 316 316 314 316 316 314 312 311 309 308 308
26 44 14 9 349 342 16 270 250 308 233 244 232 231 232 239 251 256 262 272 283 289 290 283 285 289 298 303 304 304 305 304 306 310 315 315 314 314 313 313 314 315 315 315 316 316 315 314 314
11 16 342 313 51 301 342 273 265 269 266 253 243 245 246 247 242 249 258 269 282 289 287 283 286 292 302 306 309 308 305 306 311 310 311 314 314 313 309 309 311 313 314 316 318 316 315 315 314
299 335 301 252 327 326 258 263 281 282 271 264 263 264 260 254 255 249 252 264 280 295 294 289 286 293 303 310 310 306 303 311 313 316 318 320 317 314 314 314 316 319 318 319 317 314 313 313 312
226 244 252 260 39 330 240 286 296 314 293 277 272 271 266 250 259 246 249 259 277 293 297 291 290 296 308 312 313 312 320 321 323 323 324 323 321 321 321 321 321 321 318 316 317 316 315 311 310
222 268 297 287 314 6 335 302 283 307 35 22 13 342 239 236 254 236 243 259 276 284 292 297 300 308 314 315 318 321 323 322 322 322 322 323 322 321 321 320 319 319 317 316 319 320 317 314 313
38 291 336 261 327 232 319 293 315 318 80 63 60 74 77 233 237 232 249 266 271 280 293 301 309 310 310 317 318 316 318 320 323 325 325 324 322 321 320 320 319 320 320 319 312 310 313 309 307
335 144 260 294 17 283 17 276 306 324 106 49 52 76 90 119 216 252 267 266 272 284 298 303 300 303 311 315 317 321 323 324 326 325 323 322 323 323 325 325 325 321 313 308 307 307 302 303 302
247 299 303 49 85 13 336 77 269 345 257 178 76 97 91 118 205 263 268 268 276 279 280 285 296 303 307 310 316 320 320 322 320 322 323 325 326 329 331 325 317 316 314 308 308 310 304 300 301
320 118 55 62 98 19 284 82 283 246 235 204 184 135 87 77 334 301 278 265 261 264 275 287 294 302 307 312 316 317 320 323 324 325 327 328 330 331 327 325 324 322 321 313 306 302 300 298 297
29 43 345 356 9 233 282 19 248 251 260 230 185 182 158 133 296 278 262 261 272 281 291 294 301 305 309 314 317 320 326 325 326 329 329 330 331 330 331 330 331 329 327 325 323 316 307 303 302
22 108 139 270 280 282 16 233 256 210 275 178 177 179 174 279 279 268 266 276 284 291 295 301 304 308 317 319 323 325 324 327 329 330 330 330 329 330 333 333 332 334 334 331 327 323 320 313 304
321 46 149 96 59 32 275 286 289 184 248 192 184 193 227 277 276 268 274 280 285 291 300 307 312 315 317 321 323 326 328 332 333 332 330 330 329 331 332 333 334 335 334 332 330 326 320 322 325
92 139 27 16 338 302 284 279 243 258 234 218 208 219 247 282 269 271 274 275 284 295 304 310 312 317 323 326 330 332 335 333 332 330 329 329 328 331 332 333 333 333 333 333 329 327 331 330 331
51 17 44 135 149 209 288 267 219 231 214 203 215 221 261 288 272 265 264 276 288 299 304 308 315 323 327 330 333 334 333 332 330 328 329 328 327 329 330 331 330 332 332 333 327 328 329 325 332
333 212 164 132 267 235 162 266 245 242 247 203 209 247 282 294 266 261 267 279 291 298 306 315 323 324 329 333 335 332 331 330 329 329 330 328 324 325 327 328 328 331 333 331 328 328 335 332 325